Home   Weather   Mulhouse   Past weeks

Flag for France Past Weather in Mulhouse, Alsace, France — Yesterday and Last 2 Weeks

Now
64 °F

Broken clouds.


Feels Like: 64 °F
Forecast: 62 / 85 °F
Wind: 5 mph from South

Location: Bale-Mulhouse

Current Time: Aug 17, 2017 at 7:54:12 am

Latest Report: Aug 17, 2017 at 7:30 am


Visibility: N/A

Pressure: 30.12 "Hg

Humidity: 94%

Dew Point: 63 °F

Location of MulhouseLocation

Past Weather in Mulhouse — Graph

°F

Mulhouse Temperature Yesterday

Maximum temperature yesterday: 82 °F (at 7:00 pm)
Minimum temperature yesterday: 61 °F (at 6:30 am)
Average temperature yesterday: 73 °F

High & Low Weather Summary for the Past Weeks

 TemperatureHumidityPressure
High88 °F (Aug 2, 4:30 pm)100% (Aug 9, 7:00 am)30.21 "Hg (Aug 9, 7:00 am)
Low50 °F (Aug 7, 5:00 am)30% (Aug 7, 7:00 pm)29.83 "Hg (Aug 8, 5:30 am)
Average68 °F74%30.07 "Hg
* Reported Aug 2 6:00 am — Aug 17 6:30 am, Mulhouse. Weather by CustomWeather, © 2017

Note: Actual official high and low records may vary slightly from our data, if they occured in-between our weather recording intervals... More about our weather records

Advertising

Mulhouse Weather History for the Previous 24 Hours

Scroll right to see more
 ConditionsComfort  
Time TempWeatherWind HumidityBarometerVisibility
6:30 am
Thu, Aug 17
64 °FSunny.6 mph94%30.12 "Hg10 mi
6:00 am64 °FClear.3 mph94%30.09 "Hg10 mi
5:30 am64 °FClear.3 mph94%30.09 "Hg10 mi
5:00 am64 °FClear.6 mph94%30.09 "Hg10 mi
4:30 am64 °FClear.5 mph94%30.09 "Hg10 mi
4:00 am64 °FClear.6 mph94%30.12 "Hg10 mi
3:30 am64 °FClear.3 mph94%30.12 "Hg10 mi
3:00 am64 °FClear.3 mph94%30.12 "Hg10 mi
2:00 am63 °FClear.3 mph94%30.12 "Hg10 mi
1:30 am64 °FClear.3 mph88%30.12 "Hg10 mi
1:00 am64 °FPassing clouds.5 mph88%30.12 "HgN/A
12:30 am66 °FPassing clouds.2 mph83%30.12 "HgN/A
12:00 am70 °FThunderstorms. Partly cloudy.12 mph69%30.15 "HgN/A
11:30 pm
Wed, Aug 16
70 °FPartly cloudy.No wind78%30.12 "HgN/A
11:00 pm72 °FPassing clouds.3 mph78%30.12 "HgN/A
10:30 pm72 °FPassing clouds.1 mph73%30.12 "HgN/A
10:00 pm73 °FPassing clouds.2 mph69%30.12 "HgN/A
9:30 pm73 °FPassing clouds.5 mph74%30.12 "HgN/A
9:00 pm73 °FPassing clouds.5 mph78%30.12 "HgN/A
8:30 pm75 °FPartly sunny.3 mph69%30.09 "HgN/A
8:00 pm79 °FPartly sunny.3 mph58%30.09 "HgN/A
7:30 pm81 °FBroken clouds.3 mph54%30.09 "HgN/A
7:00 pm82 °FPartly sunny.6 mph51%30.09 "HgN/A
6:30 pm81 °FBroken clouds.6 mph54%30.09 "HgN/A
6:00 pm81 °FBroken clouds.5 mph54%30.09 "HgN/A
5:30 pm81 °FBroken clouds.5 mph51%30.12 "HgN/A
5:00 pm81 °FBroken clouds.7 mph54%30.09 "HgN/A
4:30 pm81 °FBroken clouds.2 mph54%30.12 "HgN/A
4:00 pm81 °FBroken clouds.5 mph51%30.12 "HgN/A
3:30 pm81 °FBroken clouds.3 mph54%30.12 "HgN/A
3:00 pm81 °FBroken clouds.3 mph54%30.12 "HgN/A
2:30 pm81 °FBroken clouds.2 mph51%30.12 "HgN/A
2:00 pm81 °FBroken clouds.2 mph51%30.12 "HgN/A
1:30 pm79 °FBroken clouds.3 mph58%30.12 "HgN/A
1:00 pm79 °FBroken clouds.5 mph58%30.15 "HgN/A
12:30 pm79 °FBroken clouds.3 mph54%30.15 "HgN/A
12:00 pm77 °FScattered clouds.2 mph65%30.15 "HgN/A
11:30 am75 °FScattered clouds.2 mph61%30.15 "HgN/A
11:00 am75 °FScattered clouds.2 mph61%30.18 "HgN/A
10:30 am75 °FScattered clouds.2 mph65%30.18 "HgN/A
10:00 am73 °FPassing clouds.3 mph69%30.18 "HgN/A
9:30 am72 °FPassing clouds.5 mph73%30.18 "HgN/A
9:00 am68 °FPassing clouds.7 mph83%30.18 "HgN/A
8:30 am68 °FPassing clouds.7 mph83%30.18 "HgN/A
8:00 am64 °FPassing clouds.6 mph94%30.18 "HgN/A
7:30 am63 °FScattered clouds.5 mph94%30.15 "HgN/A
7:00 am61 °FScattered clouds.2 mph94%30.15 "HgN/A
Weather by CustomWeather, © 2017

See weather overviewHow to use our weather pages